Back to catalog

SWOT

AliveScienceLEO
NORAD 54754·PAYLOAD·🇺🇸 United States

Launched Dec 16, 2022 from Vandenberg Space Force Base

Loading…

Next Passes (next 24 hours)

TLE

FreshSource: CelesTrak SupGP

Epoch: Sep 14, 2026, 00:00 UTC

1 54754C 22173A   26257.00000000  .00000034  00000+0  23283-4 0  2577
2 54754  77.6083 275.4181 0000198 204.3842  53.8160 14.00172311    11

Track SWOT in real time with AllMySat

Download on the App Store